Weather in Ashtarak

Armenia     40°17′52″N   44°21′42″E
temp.,
°C
wind,
m/s
gust,
m/s
humid.,
%
clouds,
%
prec.,
mm/h
press.,
hPa
HPBL,
m
8 may, sat
sat801:00+12nne22643 0.0 101620
04:00+11ne22670 0.0 101716
07:00+13nne11665 0.0 101825
10:00+18se23474 0.0 1017936
13:00+21sse22405 0.0 10151459
16:00+22se223588 0.0 10131367
19:00+21s22455 0.1 101249
22:00+17nne33525 0.3 101325
9 may, sun
sun901:00+16nne3351100 0.0 101229
04:00+15ne1154100 0.0 101211
07:00+16ne225387 0.0 101216
10:00+20sse2341100 0.0 1011858
13:00+24s233596 0.0 10081525
16:00+26ssw2733100 0.5 10032502
19:00+19se125994 2.9 100775
22:00+15ne3478100 4.3 1011267
10 may, mon
mon1001:00+13ene34808 0.1 101188
04:00+12e3578100 0.3 1011252
07:00+10nne1378100 0.7 1013338
10:00+11e656571 1.4 1016768
13:00+16wsw26304 0.0 10142096
16:00+18w3523100 0.0 10122042
19:00+17w01348 0.0 101176
22:00+11ne57475 0.0 1014164
11 may, tue
tue1101:00+8nne14531 0.0 1014112
04:00+7ene12572 0.0 101539
07:00+8e11561 0.0 101692
10:00+13sse23470 0.0 10151018
13:00+17se33390 0.0 10131252
16:00+19ese22345 0.0 10111326
19:00+19ene12424 0.0 101078
22:00+14nne45490 0.0 101182
12 may, wed
wed1201:00+13nne23520 0.0 101247
04:00+11nne21595 0.0 101319
07:00+13ne225622 0.0 101332
10:00+19se23414 0.0 1012694
13:00+22se563675 0.0 10111499
16:00+16nne786944 2.3 1013336
19:00+16n1368100 2.1 1013245
22:00+13ne227117 2.8 101413